Temp
13 13 13 12 12 13 12 12 12 12 13 13 13 13 12 8 7 7 6 6 7 7 7 8 8 9 9 9 10 10 10 10 10 11 12 13 13 13 13 12 12 12 12 13
13 12 12 13 12 13 12 12 11 11 12 13 13 12 8 7 5 5 5 5 6 8 8 8 9 9 9 9 9 10 10 10 10 9 9 10 11 12 12 13 13 13 12 12
12 12 13 13 11 11 10 10 10 10 10 11 11 12 9 7 5 5 5 6 7 7 7 8 8 8 8 9 9 9 9 9 9 9 9 9 9 10 11 12 13 13 13 13
12 11 11 11 11 10 10 10 10 10 10 12 11 11 9 7 7 6 5 6 7 7 8 8 8 8 7 7 7 7 7 7 7 7 7 7 7 8 9 10 11 11 12 13
12 10 10 10 10 10 11 9 9 10 9 8 8 9 10 7 8 8 6 6 7 7 7 7 7 7 7 7 7 6 6 6 6 6 6 6 6 7 8 9 10 10 11 12
9 11 10 9 10 9 9 9 8 6 7 9 7 7 9 9 8 6 5 6 6 6 7 7 7 7 7 7 6 5 5 5 5 5 5 5 5 6 6 8 9 9 10 11
7 9 9 9 9 8 8 8 9 9 10 10 6 7 10 7 6 5 5 5 6 6 6 6 7 6 6 6 6 5 5 5 5 5 5 5 5 5 6 6 7 7 8 10
5 9 7 8 8 8 7 7 8 7 8 8 8 7 8 6 4 5 6 6 6 7 6 7 6 6 6 6 5 5 4 5 5 4 4 4 5 5 5 6 6 7 8 10
5 6 6 7 7 7 7 7 6 6 5 4 6 7 7 5 6 6 6 5 5 5 6 6 6 6 6 6 5 5 4 4 4 4 4 4 4 4 4 5 6 6 7 8
5 4 5 6 7 6 6 6 5 4 2 3 4 5 6 6 5 7 6 5 5 5 5 6 6 6 6 6 5 5 5 4 4 4 4 4 4 4 4 5 6 6 7 8
3 3 4 5 6 5 5 5 4 4 3 2 2 5 5 6 6 4 5 4 4 4 5 5 5 5 5 5 5 5 5 4 4 4 4 4 4 4 3 4 5 6 7 7
3 2 2 4 4 3 4 3 3 2 2 2 1 3 6 5 4 5 4 3 3 3 4 4 5 5 5 5 5 5 5 4 4 3 3 4 4 3 3 4 5 5 6 7
4 2 1 4 4 3 3 3 3 2 -1 1 1 3 6 5 4 4 4 3 4 4 5 5 5 5 5 5 5 5 5 4 4 3 3 3 3 3 4 4 5 5 6 7
4 1 1 2 2 1 2 3 2 2 1 1 2 2 4 4 4 4 3 3 4 4 4 4 4 4 4 4 4 4 4 4 4 3 3 3 3 3 3 4 5 6 6 7
2 -0 0 1 2 1 2 2 2 0 1 0 2 2 3 4 4 3 2 4 4 4 4 4 4 3 3 3 3 3 3 4 3 2 2 3 3 3 3 4 5 6 6 8
0 0 0 -0 1 1 1 2 2 2 2 2 2 2 4 3 3 3 4 4 4 4 3 3 3 3 3 2 3 2 2 2 2 2 2 2 2 3 3 4 5 6 7 8
-1 -1 -2 -1 -0 0 0 1 2 2 2 3 2 3 2 3 3 3 3 4 3 3 3 3 2 2 2 2 2 2 1 1 1 2 2 2 2 3 3 3 5 6 7 8
-2 -3 -1 -1 -1 -1 2 1 2 1 2 2 2 2 2 2 2 3 4 4 4 3 3 2 2 2 2 2 2 1 1 1 1 1 1 2 2 3 3 3 4 5 7 8
-2 -1 -2 -1 -2 1 2 0 0 -1 1 2 1 1 1 1 1 3 4 4 3 3 2 2 2 2 2 2 2 1 1 1 1 2 2 2 2 2 2 3 4 5 7 8
-2 -4 -4 -6 -6 -2 -1 0 1 0 0 1 1 1 1 1 1 3 3 3 3 3 2 2 2 2 2 2 1 1 1 1 2 2 2 2 2 1 1 2 4 5 6 7
-5 -8 -8 -5 -6 -2 -0 1 1 -0 -0 1 0 0 0 1 1 1 2 3 3 2 2 2 2 2 1 1 1 1 0 -1 -1 -1 -1 -1 -1 -1 1 3 4 6 6 7
-4 -7 -7 -7 -7 -3 -0 1 -1 1 -0 0 -0 -0 0 0 2 3 3 3 2 2 2 2 1 1 1 1 1 -0 -1 -2 -2 -2 -2 -1 -1 0 1 3 4 6 6 7
-4 -4 -5 -5 -2 1 1 -0 -1 -0 -1 -0 -1 0 0 0 2 2 2 2 2 2 2 1 1 1 1 -0 -2 -2 -2 -2 -2 -2 -1 -1 -1 1 2 3 4 4 5 7
-5 -3 -4 -3 -1 -1 -1 -1 -1 -1 -1 -1 -0 0 -0 1 2 2 2 2 2 2 1 1 0 0 -1 -2 -2 -2 -1 -1 -2 -2 -2 -1 0 2 3 4 4 4 4 5
-2 -3 -4 -4 -2 -2 -2 -2 -2 -2 -1 -1 1 1 1 2 2 2 2 2 2 1 1 0 0 -1 -2 -2 -1 -0 -0 -0 -0 -1 -1 -1 2 3 3 3 3 3 3 6
-3 -3 -2 -3 -2 -2 -2 -2 -2 -2 -1 1 0 1 2 2 2 2 2 1 1 0 0 -0 -0 -1 -1 -2 -1 0 1 1 1 -0 -1 1 2 3 3 3 3 3 4 6
Height
1531 1537 1545 1544 1543 1543 1544 1545 1543 1541 1536 1534 1529 1525 1523 1527 1526 1525 1524 1523 1522 1521 1519 1519 1518 1515 1512 1509 1506 1502 1498 1495 1491 1488 1485 1482 1479 1478 1477 1473 1470 1468 1466 1464
1537 1546 1545 1543 1544 1544 1543 1545 1546 1539 1535 1533 1523 1520 1526 1527 1529 1527 1526 1526 1523 1522 1521 1519 1517 1514 1511 1507 1505 1501 1497 1493 1490 1486 1483 1480 1476 1473 1471 1470 1467 1464 1462 1458
1543 1547 1543 1541 1544 1544 1545 1547 1546 1544 1535 1530 1525 1515 1523 1528 1528 1528 1525 1523 1523 1522 1520 1517 1515 1513 1510 1507 1503 1499 1494 1490 1486 1482 1478 1474 1471 1469 1466 1463 1462 1461 1457 1454
1545 1545 1543 1544 1544 1546 1547 1545 1544 1541 1539 1529 1529 1524 1522 1528 1528 1525 1523 1523 1523 1522 1521 1518 1515 1512 1508 1504 1500 1496 1492 1487 1483 1479 1473 1470 1466 1463 1461 1458 1454 1452 1450 1448
1548 1548 1548 1548 1547 1546 1545 1544 1542 1535 1537 1538 1536 1533 1519 1528 1525 1525 1523 1523 1521 1520 1518 1516 1513 1510 1508 1503 1497 1493 1489 1485 1482 1477 1472 1466 1463 1459 1455 1452 1448 1444 1443 1441
1550 1549 1551 1552 1551 1550 1548 1545 1539 1543 1543 1538 1545 1545 1526 1523 1525 1526 1526 1524 1523 1520 1518 1515 1512 1509 1505 1501 1496 1491 1486 1482 1478 1474 1470 1465 1460 1455 1450 1445 1442 1438 1435 1433
1559 1554 1554 1555 1553 1551 1551 1551 1546 1534 1528 1529 1544 1540 1518 1528 1528 1528 1526 1524 1522 1519 1517 1513 1509 1505 1502 1498 1494 1488 1484 1480 1476 1472 1467 1461 1456 1452 1447 1442 1437 1433 1429 1427
1573 1558 1560 1560 1559 1560 1559 1559 1563 1561 1544 1540 1543 1533 1521 1528 1529 1528 1526 1523 1520 1517 1513 1509 1505 1502 1499 1495 1491 1486 1482 1478 1474 1469 1464 1459 1453 1446 1441 1437 1433 1427 1421 1415
1577 1568 1562 1560 1559 1560 1560 1560 1563 1562 1557 1558 1541 1535 1525 1526 1527 1526 1523 1520 1518 1512 1507 1504 1501 1498 1495 1491 1488 1484 1479 1476 1471 1466 1461 1456 1449 1441 1437 1433 1429 1425 1421 1419
1581 1578 1566 1561 1559 1559 1560 1563 1564 1567 1572 1563 1546 1539 1527 1528 1527 1525 1524 1518 1513 1507 1502 1499 1496 1493 1490 1488 1485 1481 1477 1472 1468 1463 1457 1453 1446 1439 1431 1427 1423 1419 1416 1413
1577 1579 1567 1563 1560 1560 1563 1564 1569 1570 1570 1565 1558 1536 1535 1531 1527 1527 1522 1516 1510 1503 1499 1495 1492 1489 1487 1485 1481 1477 1474 1469 1464 1460 1454 1449 1442 1435 1430 1425 1420 1415 1410 1407
1580 1582 1579 1567 1562 1563 1564 1565 1566 1574 1570 1564 1566 1539 1532 1530 1528 1525 1520 1514 1506 1500 1495 1490 1487 1486 1484 1481 1477 1474 1470 1465 1460 1456 1451 1445 1438 1432 1425 1419 1415 1410 1406 1403
1582 1583 1580 1562 1564 1562 1563 1563 1565 1569 1576 1560 1566 1540 1528 1527 1523 1518 1516 1510 1505 1498 1493 1491 1488 1485 1482 1477 1473 1469 1465 1461 1456 1452 1447 1441 1434 1426 1419 1413 1409 1405 1402 1399
1579 1582 1582 1578 1574 1574 1569 1564 1564 1568 1567 1556 1548 1538 1527 1526 1521 1515 1511 1508 1503 1498 1494 1491 1487 1484 1479 1474 1469 1464 1460 1456 1451 1447 1443 1438 1431 1423 1418 1410 1405 1401 1398 1396
1579 1581 1577 1576 1575 1573 1568 1559 1552 1562 1555 1558 1538 1536 1527 1525 1520 1515 1510 1506 1501 1497 1494 1490 1486 1481 1476 1470 1464 1460 1455 1450 1446 1443 1438 1434 1429 1422 1415 1406 1400 1397 1394 1393
1582 1582 1578 1571 1567 1567 1562 1550 1550 1545 1543 1544 1538 1532 1524 1520 1517 1512 1507 1504 1499 1495 1492 1488 1483 1477 1473 1468 1461 1456 1452 1447 1443 1438 1432 1427 1422 1415 1409 1402 1397 1393 1390 1389
1584 1581 1582 1575 1568 1564 1558 1552 1546 1541 1537 1536 1534 1529 1525 1520 1516 1510 1504 1501 1497 1493 1490 1485 1480 1475 1470 1463 1458 1452 1447 1443 1437 1433 1427 1422 1416 1409 1405 1399 1394 1391 1388 1386
1583 1586 1581 1573 1568 1568 1547 1550 1547 1545 1536 1537 1534 1529 1525 1521 1514 1507 1502 1497 1494 1492 1487 1482 1477 1471 1465 1459 1454 1449 1444 1439 1433 1428 1423 1418 1411 1405 1402 1396 1393 1390 1387 1387
1579 1579 1583 1575 1576 1558 1544 1552 1551 1548 1538 1536 1533 1527 1521 1516 1508 1501 1499 1496 1493 1488 1484 1478 1474 1468 1460 1454 1449 1443 1438 1434 1429 1422 1416 1411 1405 1399 1396 1391 1389 1387 1386 1387
1582 1584 1591 1593 1594 1566 1550 1549 1539 1537 1535 1533 1534 1527 1522 1515 1510 1497 1495 1492 1488 1484 1480 1474 1468 1461 1455 1449 1443 1437 1432 1426 1420 1415 1409 1405 1399 1395 1390 1387 1385 1384 1384 1386
1590 1593 1597 1587 1591 1565 1551 1548 1543 1541 1539 1532 1531 1526 1521 1517 1512 1499 1492 1489 1485 1480 1475 1469 1463 1455 1449 1443 1437 1429 1423 1416 1411 1406 1402 1399 1396 1392 1388 1385 1383 1381 1382 1385
1588 1597 1593 1589 1590 1566 1549 1545 1552 1545 1536 1534 1528 1523 1517 1509 1501 1495 1490 1486 1481 1475 1469 1463 1456 1448 1441 1436 1429 1419 1411 1407 1403 1400 1398 1395 1392 1389 1387 1385 1381 1381 1380 1383
1584 1581 1582 1579 1562 1547 1546 1545 1542 1539 1534 1527 1524 1517 1513 1505 1498 1493 1488 1483 1477 1471 1464 1457 1449 1440 1433 1426 1418 1408 1402 1399 1395 1394 1392 1391 1388 1385 1385 1383 1384 1383 1382 1385
1573 1569 1570 1566 1547 1547 1543 1539 1536 1533 1529 1524 1519 1514 1508 1501 1495 1490 1485 1479 1473 1466 1458 1451 1443 1434 1424 1416 1407 1400 1392 1389 1387 1387 1386 1386 1384 1383 1383 1383 1385 1386 1386 1385
1570 1568 1561 1554 1546 1541 1534 1534 1530 1525 1521 1518 1513 1509 1504 1499 1493 1488 1482 1476 1469 1462 1454 1446 1437 1427 1417 1407 1397 1389 1384 1381 1380 1381 1383 1382 1382 1382 1382 1383 1384 1387 1388 1388
1565 1564 1560 1548 1543 1542 1530 1524 1521 1520 1515 1511 1509 1503 1500 1497 1491 1486 1480 1474 1467 1458 1450 1441 1432 1422 1410 1399 1390 1383 1379 1376 1376 1377 1380 1380 1382 1383 1382 1382 1387 1391 1392 1394
Wind_Speed
7 8 5 3 1 2 3 3 6 4 4 12 5 15 9 7 12 11 10 11 12 12 11 12 13 15 16 17 19 21 21 20 19 19 20 21 24 22 18 16 16 18 21 25
6 4 4 2 4 3 3 4 5 10 6 10 12 17 4 9 5 7 8 9 10 10 11 12 14 15 16 19 21 24 26 26 25 24 21 21 23 25 26 22 18 19 21 19
3 1 4 2 2 4 2 2 4 7 6 7 8 5 3 4 4 5 9 7 9 12 13 13 15 17 18 21 23 27 28 28 28 27 27 27 26 26 27 27 25 21 20 22
4 5 3 4 3 1 2 2 5 9 12 8 7 7 4 1 2 3 6 7 8 9 11 15 18 20 22 25 25 25 24 23 24 24 24 25 27 27 27 29 29 29 23 23
2 5 5 5 0 3 4 7 6 15 13 4 5 3 2 2 2 3 4 6 6 9 13 16 17 19 23 26 27 25 23 22 21 21 22 23 24 24 27 29 30 29 22 22
2 3 4 3 3 3 7 6 8 3 1 2 6 3 4 2 2 6 4 7 11 14 15 15 15 19 22 25 25 24 23 23 23 23 22 23 22 24 27 25 30 31 25 24
7 2 3 6 5 4 9 7 5 4 2 3 4 6 8 3 3 4 8 13 17 16 19 17 17 18 20 22 24 24 24 22 23 25 25 26 28 26 28 28 29 30 28 25
5 4 5 8 3 3 3 1 1 6 6 11 12 8 1 2 5 8 13 18 22 28 25 18 20 19 19 19 22 22 19 20 25 28 30 32 32 26 27 28 30 29 28 29
6 4 4 4 3 1 2 1 1 5 6 4 4 6 4 1 5 13 21 20 29 33 27 18 21 21 20 21 22 22 21 22 25 29 31 35 35 31 28 27 27 26 26 26
3 7 3 5 2 2 3 1 3 0 4 5 3 10 10 10 13 19 20 26 32 34 30 25 29 26 21 21 23 22 22 23 25 28 32 35 39 34 31 27 26 25 24 24
1 3 4 3 2 8 5 2 2 1 2 3 6 9 3 16 17 13 26 31 30 32 28 28 29 23 20 21 24 24 24 26 26 29 32 36 40 37 36 26 23 23 23 21
3 1 4 7 6 3 1 1 4 2 5 4 5 16 12 10 14 25 31 28 30 24 24 24 18 14 17 21 25 27 25 26 28 30 33 37 41 39 41 27 22 22 21 18
3 1 6 6 2 2 4 0 1 2 2 16 11 12 9 28 32 30 24 27 25 21 18 17 18 18 21 24 27 28 27 28 30 30 33 37 42 42 42 30 23 22 21 17
7 2 6 7 10 5 13 11 8 7 7 14 16 24 25 19 19 26 27 27 20 16 17 18 21 23 26 29 32 32 30 28 29 28 32 36 41 42 41 31 24 19 20 16
3 4 4 6 13 12 17 21 21 11 18 9 20 19 21 19 18 26 23 20 17 18 21 23 27 30 31 29 31 31 30 27 25 26 33 36 38 41 40 31 24 18 21 16
3 4 9 15 11 14 17 20 17 17 17 15 20 21 18 21 18 18 21 17 18 21 23 26 30 30 27 30 33 34 32 28 27 31 34 34 41 44 40 31 23 18 21 17
2 2 1 5 5 11 7 6 6 5 6 8 7 11 14 13 20 21 22 22 23 23 24 27 28 30 30 31 32 33 31 31 32 32 31 39 46 45 38 32 23 17 20 16
2 1 3 4 4 3 3 6 5 12 4 9 11 14 17 17 24 32 26 22 21 23 25 26 28 31 33 33 32 32 31 32 31 32 36 43 44 43 34 28 20 17 17 14
6 1 3 4 6 11 6 7 13 9 5 10 19 21 27 28 26 23 18 14 21 24 24 27 29 33 34 34 32 32 32 31 34 41 42 44 43 38 30 25 20 18 16 12
5 3 2 3 3 6 3 13 37 7 7 24 27 25 27 30 11 13 23 30 26 25 26 30 34 35 34 34 29 27 43 46 44 43 43 41 38 30 27 24 16 19 15 5
3 4 3 4 4 8 2 21 23 7 8 31 32 31 31 16 21 34 31 26 24 26 30 34 36 36 35 32 29 37 47 40 40 35 32 31 28 27 24 18 17 14 5 19
2 1 3 1 2 6 4 23 7 16 30 26 33 30 30 37 36 27 24 25 26 30 35 38 38 38 37 34 42 47 42 39 32 31 30 29 26 21 17 14 11 8 32 36
2 6 3 7 6 22 34 31 31 27 32 30 27 35 36 37 32 27 27 28 31 33 38 39 39 41 38 45 39 40 39 34 31 26 26 25 21 13 8 9 1 18 34 39
3 9 5 6 12 21 31 38 31 27 27 34 36 32 34 32 29 28 30 32 32 36 39 40 42 38 44 45 43 36 31 26 24 23 23 21 12 5 5 6 11 25 33 49
11 3 5 8 22 21 26 21 28 33 35 35 30 30 30 27 28 28 31 29 34 37 40 40 38 41 48 47 38 26 21 19 18 16 15 9 1 3 7 9 22 29 34 47
4 5 4 8 26 24 34 38 38 32 34 29 28 30 25 25 27 28 27 31 34 38 39 42 38 49 48 43 34 22 18 13 13 10 7 6 7 14 14 15 23 23 33 44
Wind_Direction
25 59 48 343 3 235 249 253 277 282 319 344 289 295 316 49 71 75 70 66 61 52 40 25 13 4 356 349 345 342 338 336 333 329 325 315 313 309 297 287 297 290 274 267
27 86 342 329 35 4 327 323 333 288 302 326 294 299 108 60 72 92 82 52 45 35 23 19 12 3 354 348 346 343 340 334 327 320 323 324 319 316 313 303 298 300 301 286
92 64 352 59 68 16 105 92 275 266 308 263 304 273 163 88 99 79 61 60 28 16 12 11 7 359 350 344 338 329 322 321 319 319 310 304 305 307 308 309 302 303 298 299
82 358 28 40 84 343 288 346 288 302 330 309 19 292 131 37 16 26 22 15 8 11 10 1 352 349 351 347 345 341 340 339 331 326 324 317 307 309 310 309 308 308 307 296
333 12 36 53 209 344 287 335 284 290 280 309 13 252 297 286 227 291 331 348 6 355 340 338 342 343 345 345 344 344 343 345 341 339 337 330 322 312 306 305 305 311 302 301
54 1 42 340 328 9 307 329 310 52 94 256 114 1 272 262 314 309 309 313 325 332 332 322 324 330 337 342 344 344 343 345 340 335 330 328 326 320 315 311 305 313 311 300
343 11 4 17 358 6 23 10 336 322 338 317 182 330 264 319 323 308 325 316 319 317 319 311 314 321 332 340 342 341 341 348 354 350 341 331 319 312 312 314 313 317 319 306
0 347 18 338 34 317 5 60 261 292 308 300 309 251 239 290 312 318 309 306 310 315 317 315 314 312 320 333 340 338 337 339 346 349 350 347 342 326 317 313 311 314 313 309
350 260 325 42 330 26 354 55 161 273 273 261 254 304 248 339 338 335 334 331 325 318 318 305 328 310 310 325 337 336 330 327 333 339 346 347 347 339 329 316 317 310 306 303
4 293 327 298 344 54 108 261 294 153 289 280 281 295 291 319 320 327 325 323 320 321 320 298 324 320 303 315 325 329 327 324 330 335 342 343 346 345 337 323 320 309 310 303
85 172 269 345 292 306 338 319 51 302 231 279 304 277 324 304 305 318 315 317 316 317 320 319 316 310 301 303 313 319 322 322 323 328 337 339 343 344 346 328 321 316 316 309
314 300 288 254 295 279 212 136 101 174 271 241 276 282 285 290 311 312 308 314 321 326 327 325 325 325 317 313 310 310 312 317 320 323 329 335 338 340 345 337 327 327 325 317
5 298 308 317 13 58 83 334 216 163 196 282 285 280 284 308 307 310 314 319 332 341 349 349 342 338 328 322 319 317 309 312 316 317 325 331 335 339 342 340 330 337 329 325
288 216 204 256 286 300 298 284 253 261 274 282 268 278 291 301 302 310 313 320 331 346 342 338 337 335 330 324 320 317 314 316 315 316 323 330 335 338 337 337 332 336 331 333
83 255 272 282 284 285 278 279 283 254 255 255 275 289 285 291 301 305 303 312 326 331 331 333 333 331 328 325 327 331 333 322 318 321 323 328 333 336 338 336 333 340 336 328
8 284 319 299 271 263 269 275 276 276 270 255 260 275 285 287 299 313 324 316 316 320 326 331 331 331 329 325 323 324 328 326 324 322 321 326 332 334 338 337 335 333 337 320
251 279 348 279 288 313 283 316 290 282 269 284 292 321 325 323 327 320 318 311 307 314 326 328 326 325 323 322 322 322 321 320 318 319 319 325 329 331 336 334 334 338 333 320
210 161 235 272 320 258 188 29 354 336 318 32 354 340 327 319 324 319 316 313 316 315 320 322 324 324 323 322 322 320 320 319 317 317 317 323 325 327 331 328 331 333 331 325
192 229 314 315 317 289 317 15 340 337 301 12 356 334 332 333 326 311 326 318 319 321 321 321 321 322 320 320 321 318 322 323 318 315 316 320 322 323 324 325 325 334 331 314
68 59 125 328 241 275 76 348 344 309 239 358 345 329 326 332 323 303 322 319 324 325 324 323 324 321 319 321 321 320 323 320 311 309 311 315 315 322 322 324 322 334 322 266
340 324 239 266 257 279 207 356 348 341 336 327 327 317 316 316 298 291 315 318 324 324 325 326 325 322 321 321 314 310 319 315 315 312 310 312 317 323 322 322 327 323 280 163
253 216 264 216 268 279 257 328 350 293 304 304 305 309 313 315 324 322 321 322 324 324 326 328 328 326 325 323 323 316 312 313 307 306 303 304 309 317 320 323 333 308 161 167
278 195 229 193 248 275 293 296 300 296 299 307 309 311 318 319 322 320 322 323 325 325 328 331 331 328 328 328 315 307 305 301 298 299 295 302 310 313 325 339 208 164 152 160
276 241 237 299 271 282 292 298 301 305 303 305 310 315 322 321 318 317 322 322 325 328 330 333 333 331 326 320 325 318 312 301 292 289 292 299 303 315 318 118 198 161 147 147
283 229 241 254 282 298 296 298 298 305 304 306 313 318 325 325 318 320 324 328 329 330 334 333 335 333 325 332 332 326 319 307 290 284 286 285 234 12 108 163 169 159 150 157
201 235 288 286 298 294 289 301 306 300 302 306 314 316 325 323 321 324 328 332 334 336 335 339 338 334 335 339 342 325 306 307 282 273 260 170 120 110 141 152 147 153 153 150